Vicksburg, LA

1:40 AM CDT on June 27, 2017 (GMT -0500)
Vicksburg Tallulah Regional

Weather History for KTVR - February, 2014

Change the Weather History Date:

Sunday, February 9, 2014

  Actual Average Record
Temperature  
Mean Temperature 46 °F 48 °F  
Max Temperature 59 °F 59 °F 82 °F (1957)
Min Temperature 33 °F 38 °F 20 °F (1971)
Degree Days  
Heating Degree Days 19 17  
Month to date heating degree days 199 158  
Since 1 July heating degree days 2092 1702  
Cooling Degree Days 0 0  
Month to date cooling degree days 0 0  
Year to date cooling degree days 0 3  
Moisture  
Dew Point 41 °F    
Average Humidity 81    
Maximum Humidity 100    
Minimum Humidity 62    
Precipitation  
Precipitation 0.00 in 0.19 in 2.00 in (1949)
Month to date precipitation 1.80 1.58  
Year to date precipitation 4.06 6.65  
Sea Level Pressure  
Sea Level Pressure 30.15 in    
Wind  
Wind Speed 5 mph (North)    
Max Wind Speed 14 mph    
Max Gust Speed 19 mph    
Visibility 8 miles    
Events      
T = Trace of Precipitation, MM = Missing Value Source: NWS Daily Summary

Daily Weather History Graph

Daily Weather History Graph

Search for Another Location

Airport or City:

Trip Planner

Search our weather history database for the weather conditions in past years. The results will help you decide how hot, cold, wet, or windy it might be!

Date:

Astronomy

Feb. 09, 2014 Rise Set
Actual Time 6:52 AM CST 5:44 PM CST
Civil Twilight 6:26 AM CST 6:10 PM CST
Nautical Twilight 5:57 AM CST 6:39 PM CST
Astronomical Twilight 5:29 AM CST 7:07 PM CST
Moon 1:30 PM CST (2/9) 2:51 AM CST (2/9)
Length of Visible Light 11h 43m
Length of Day
10h 52m
Waxing Gibbous, 77% of the Moon is Illuminated
Feb 9
Waxing Gibbous
Feb 14
Full
Feb 22
Last Quarter
Mar 1
New
Mar 8
First Quarter

Hourly Weather History & Observations

Time (CST) Temp. Windchill Dew Point Humidity Pressure Visibility Wind Dir Wind Speed Gust Speed Precip Events Conditions
12:53 AM 35.1 °F 30.1 °F 34.0 °F 96% 30.15 in 6.0 mi SSE 5.8 mph - N/A   Clear
1:53 AM 34.0 °F 29.8 °F 33.1 °F 96% 30.15 in 4.0 mi NNW 4.6 mph - N/A   Partly Cloudy
2:07 AM 36.0 °F 31.1 °F 35.1 °F 97% 30.14 in 5.0 mi NW 5.8 mph - N/A   Mostly Cloudy
2:53 AM 42.1 °F - 39.9 °F 92% 30.17 in 7.0 mi Calm Calm - N/A   Overcast
3:53 AM 42.1 °F - 39.9 °F 92% 30.16 in 7.0 mi Calm Calm - N/A   Overcast
4:53 AM 43.0 °F 39.5 °F 39.9 °F 89% 30.15 in 6.0 mi NNE 5.8 mph - N/A   Overcast
5:53 AM 43.0 °F 40.3 °F 39.9 °F 89% 30.17 in 7.0 mi NE 4.6 mph - N/A   Overcast
6:11 AM 43.0 °F 41.3 °F 39.9 °F 89% 30.15 in 7.0 mi NE 3.5 mph - N/A   Overcast
6:53 AM 43.0 °F - 39.9 °F 89% 30.19 in 7.0 mi Calm Calm - N/A   Overcast
7:53 AM 44.1 °F 42.5 °F 39.9 °F 85% 30.21 in 7.0 mi North 3.5 mph - N/A   Overcast
8:53 AM 45.0 °F - 39.9 °F 82% 30.22 in 7.0 mi Calm Calm - N/A   Overcast
9:53 AM 46.9 °F - 42.1 °F 83% 30.22 in 8.0 mi South 3.5 mph - N/A   Overcast
10:53 AM 50.0 °F - 43.0 °F 77% 30.21 in 10.0 mi Calm Calm - N/A   Overcast
11:53 AM 54.0 °F - 45.0 °F 72% 30.16 in 10.0 mi Variable 4.6 mph - N/A   Overcast
12:28 PM 57.0 °F - 45.0 °F 64% 30.12 in 10.0 mi Variable 5.8 mph - N/A   Scattered Clouds
12:53 PM 55.9 °F - 45.0 °F 67% 30.13 in 10.0 mi South 5.8 mph - N/A   Mostly Cloudy
1:53 PM 59.0 °F - 46.0 °F 62% 30.13 in 10.0 mi WNW 6.9 mph - N/A   Mostly Cloudy
2:53 PM 57.9 °F - 46.0 °F 65% 30.11 in 10.0 mi West 4.6 mph - N/A   Overcast
3:53 PM 57.9 °F - 46.0 °F 65% 30.10 in 10.0 mi NW 4.6 mph - N/A   Mostly Cloudy
4:07 PM 57.9 °F - 46.0 °F 65% 30.08 in 10.0 mi North 9.2 mph - N/A   Scattered Clouds
4:53 PM 55.9 °F - 46.0 °F 69% 30.11 in 10.0 mi NNW 6.9 mph - N/A   Clear
5:53 PM 48.0 °F - 43.0 °F 83% 30.11 in 10.0 mi North 8.1 mph - N/A   Clear
6:53 PM 45.0 °F 40.6 °F 42.1 °F 90% 30.13 in 8.0 mi North 8.1 mph - N/A   Clear
7:53 PM 44.1 °F 39.5 °F 41.0 °F 89% 30.13 in 9.0 mi NNE 8.1 mph - N/A   Clear
8:53 PM 43.0 °F 38.8 °F 39.9 °F 89% 30.14 in 8.0 mi North 6.9 mph - N/A   Clear
9:53 PM 41.0 °F 34.3 °F 37.9 °F 89% 30.17 in 10.0 mi North 11.5 mph - N/A   Partly Cloudy
10:53 PM 41.0 °F 35.8 °F 37.0 °F 86% 30.17 in 10.0 mi North 8.1 mph - N/A   Overcast
11:53 PM 42.1 °F 36.6 °F 37.0 °F 82% 30.17 in 10.0 mi North 9.2 mph - N/A   Overcast